Shoshone, California Weather observations

Data are for observation ending at time listed.
 Day   Time    Ave.   Ave.  Ave.  Vector   Max.   Stn.    Total    Solar   Ave.  
  of    of     Air    Rel.  Wind   Wind    Wind   Baro.  Precip.   Rad.    Soil  
Year   Day     Temp.  Hum.  Speed  Dir.    Gust   Pres.                    Temp. 
2026   (PST)    F      %     mph   deg.    mph     mb.     in.     W/m2     F   
------------------------------------------------------------------------------
 126   12:10   82.1    21    3.8   249     11.3    970     0.00     950    83.0
 126   12:20   82.4    21    3.1   272      6.1    969     0.00     945    83.7
 126   12:30   83.1    20    3.3   250      7.5    969     0.00     939    84.4
 126   12:40   83.8    20    2.8   227      9.2    969     0.00     933    85.6
 126   12:50   84.1    20    3.6   206      8.4    968     0.00     922    87.2
 126   13:00   84.5    19    4.1   262      8.3    968     0.00     913    88.9
 126   13:10   85.1    18    2.0   214      7.9    968     0.00     901    90.7
 126   13:20   85.0    18    2.0    61      4.2    968     0.00     888    92.5
 126   13:30   86.9    17    1.5   148      4.8    968     0.00     873    94.1
 126   13:40   87.0    16    3.9   160      8.1    968     0.00     857    95.7
 126   13:50   87.2    16    2.7   148      6.9    968     0.00     840    96.8
 126   14:00   87.1    15    4.1   184      9.8    968     0.00     821    97.5
 126   14:10   87.8    15    5.1   179     11.8    968     0.00     798    98.0
 126   14:20   87.4    15    3.7    48      8.1    967     0.00     777    98.3
 126   14:30   87.8    15    4.0   209      8.6    967     0.00     753    98.5
 126   14:40   88.6    15    3.3   178      9.1    967     0.00     728    98.8
 126   14:50   88.5    14    2.8   357      5.4    967     0.00     702    99.2
 126   15:00   89.9    14    2.7   215      7.7    966     0.00     674    99.6
 126   15:10   88.9    14    3.9   207      7.6    966     0.00     645    100.1
 126   15:20   89.3    14    2.7    98      7.5    966     0.00     617    100.3
 126   15:30   89.7    14    2.4   176      5.7    966     0.00     584    100.5
 126   15:40   89.7    14    6.4   186     13.2    966     0.00     551    100.7
 126   15:50   88.3    15    6.3   200     14.0    966     0.00     520    100.3
 126   16:00   88.4    14    6.1   184     14.3    966     0.00     488    99.5
 126   16:10   88.7    14    6.3   183     14.5    966     0.00     453    98.7
 126   16:20   89.2    14    3.3   173     10.1    966     0.00     420    98.1
 126   16:30   90.1    14    2.3   166      9.6    966     0.00     385    97.8
 126   16:40   89.8    14    3.0   163      8.6    966     0.00     350    97.7
 126   16:50   90.3    14    3.2   178      7.2    966     0.00     314    97.6
 126   17:00   89.4    14    5.0   184      9.3    966     0.00     278    97.4
 126   17:10   88.2    14    5.6   188     11.3    966     0.00     244    96.7
 126   17:20   88.0    14    6.6   183     11.1    966     0.00     210    95.6
 126   17:30   87.8    14    6.1   181     13.0    966     0.00     177    94.5
 126   17:40   87.3    14    7.1   180     11.2    966     0.00     146    93.4
 126   17:50   87.1    14    5.6   181     10.4    966     0.00     115    92.2
 126   18:00   86.6    15    4.6   179      9.1    966     0.00      84    90.9
 126   18:10   86.0    15    3.8   171      8.8    966     0.00      56    89.5
 126   18:20   85.1    15    4.9   176      9.4    966     0.00      30    87.9
 126   18:30   84.2    15    2.3   173      6.1    966     0.00      11    86.0
 126   18:40   82.4    17    0.8   173      2.5    966     0.00       6    83.6
 126   18:50   80.9    19    0.1    62      0.8    966     0.00       0    80.6
 126   19:00   79.8    19    0.8    73      1.5    966     0.00       0    77.4
 126   19:10   79.7    19    0.1    79      1.1    966     0.00       0    74.4
 126   19:20   78.6    20    1.1    59      1.9    966     0.00       0    71.8
 126   19:30   77.1    21    1.4    50      2.6    966     0.00       0    69.5
 126   19:40   77.2    20    0.8    53      1.7    966     0.00       0    67.3
 126   19:50   76.8    21    1.6    56      2.7    966     0.00       0    65.5
 126   20:00   75.7    22    1.8    52      3.0    967     0.00       0    64.0
 126   20:10   73.6    23    2.0    48      3.1    967     0.00       0    62.6
 126   20:20   73.3    23    2.4    39      3.6    967     0.00       0    61.2
 126   20:30   73.2    23    0.4    92      2.0    967     0.00       0    59.8
 126   20:40   72.4    23    1.0    73      2.6    967     0.00       0    58.3
 126   20:50   72.4    22    1.9    88      3.3    967     0.00       0    56.9
 126   21:00   71.8    24    0.7    64      1.5    967     0.00       0    55.9
 126   21:10   70.1    26    0.9    62      2.8    967     0.00       0    54.8
 126   21:20   70.4    25    1.1   123      2.8    967     0.00       0    53.7
 126   21:30   66.6    30    1.9   309      4.2    968     0.00       0    52.6
 126   21:40   65.8    30    0.9   312      1.8    968     0.00       0    51.1
 126   21:50   65.4    31    2.0   335      3.1    968     0.00       0    49.5
 126   22:00   65.8    30    1.1    43      2.3    968     0.00       0    48.1
 126   22:10   66.2    30    1.1    97      2.8    968     0.00       0    46.9
 126   22:20   65.7    31    0.5   252      2.0    968     0.00       0    45.9
 126   22:30   65.8    30    1.3    51      3.7    968     0.00       0    45.0
 126   22:40   65.2    31    0.5    69      2.3    968     0.00       0    44.3
 126   22:50   64.5    31    0.6    93      2.0    968     0.00       0    43.6
 126   23:00   64.6    30    0.6    56      1.8    968     0.00       0    42.9
 126   23:10   63.6    32    0.5    61      1.7    968     0.00       0    42.3
 126   23:20   63.5    31    0.8    62      2.3    968     0.00       0    41.7
 126   23:30   63.6    31    0.4   228      1.8    968     0.00       0    41.1
 126   23:40   63.2    32    0.3   134      1.7    968     0.00       0    40.6
 126   23:50   63.7    31    0.3    42      1.2    968     0.00       0    40.2
 127    0:00   62.6    33    1.0   352      2.3    968     0.00       0    39.8
 127    0:10   62.1    33    0.8    68      1.8    968     0.00       0    39.5
 127    0:20   61.4    34    0.5    53      1.5    968     0.00       0    39.0
 127    0:30   61.0    34    1.1   106      2.4    968     0.00       0    38.5
 127    0:40   61.9    32    1.3    60      2.9    968     0.00       0    38.1
 127    0:50   59.7    37    0.9    21      2.2    968     0.00       0    37.8
 127    1:00   59.6    37    0.3    22      1.2    968     0.00       0    37.3
 127    1:10   58.9    38    0.7   322      2.7    968     0.00       0    36.6
 127    1:20   57.5    41    1.5   306      2.6    968     0.00       0    35.9
 127    1:30   57.6    41    0.7   305      3.4    968     0.00       0    35.2
 127    1:40   57.6    42    1.2   313      2.5    968     0.00       0    34.5
 127    1:50   56.7    43    2.3   335      3.5    968     0.00       0    33.9
 127    2:00   57.3    42    0.7   357      1.8    968     0.00       0    33.3
 127    2:10   58.3    39    0.8    90      4.2    969     0.00       0    32.7
 127    2:20   59.2    34    2.9    78      4.8    969     0.00       0    32.6
 127    2:30   59.6    33    1.4    77      3.3    969     0.00       0    32.9
 127    2:40   58.7    36    0.2    94      1.2    969     0.00       0    33.3
 127    2:50   57.7    38    0.1    88      0.9    969     0.00       0    33.4
 127    3:00   57.8    37    0.2   352      2.0    969     0.00       0    33.1
 127    3:10   57.5    38    0.8    63      2.0    969     0.00       0    32.8
 127    3:20   57.8    37    0.5    53      2.0    969     0.00       0    32.7
 127    3:30   56.2    40    0.7    52      2.3    969     0.00       0    32.6
 127    3:40   56.0    40    1.4    60      2.6    969     0.00       0    32.3
 127    3:50   56.1    40    1.1   310      2.9    969     0.00       0    31.9
 127    4:00   52.9    47    1.3   316      2.4    969     0.00       0    31.5
 127    4:10   52.2    47    1.7   308      2.7    969     0.00       0    30.7
 127    4:20   52.6    46    1.5   323      2.4    969     0.00       0    29.8
 127    4:30   52.5    46    1.2   328      2.0    969     0.00       0    29.0
 127    4:40   53.1    48    0.8    39      2.0    969     0.00       4    28.2
 127    4:50   53.6    46    0.2   133      1.5    969     0.00       7    27.6
 127    5:00   53.2    48    0.5    47      1.3    969     0.00       7    27.2
 127    5:10   53.4    46    0.7    57      2.0    969     0.00      18    27.0
 127    5:20   53.7    47    0.6   212      1.8    969     0.00      20    26.8
 127    5:30   54.8    45    0.4    12      2.9    969     0.00      29    26.9
 127    5:40   55.0    46    1.2    32      2.6    970     0.00      95    27.3
 127    5:50   58.4    41    0.6    70      1.2    970     0.00     140    28.0
 127    6:00   62.1    34    0.3    82      2.0    970     0.00     177    30.1
 127    6:10   64.3    34    0.3   162      1.5    970     0.00     211    33.3
 127    6:20   65.4    33    0.6   179      1.8    970     0.00     244    37.0
 127    6:30   69.0    31    0.2    67      1.2    970     0.00     273    41.2
 127    6:40   72.1    27    0.0     0      0.0    970     0.00     310    45.5
 127    6:50   71.8    26    0.5   181      1.4    970     0.00     331    50.1
 127    7:00   72.2    26    0.5   159      1.4    970     0.00     380    54.4
 127    7:10   74.1    25    0.4    98      1.7    970     0.00     414    58.6
 127    7:20   74.5    23    1.1   201      2.1    970     0.00     448    62.7
 127    7:30   73.9    23    1.1   170      2.4    970     0.00     483    66.5
 127    7:40   76.0    22    0.6   136      1.8    970     0.00     516    69.9
 127    7:50   77.2    20    0.9   160      2.3    970     0.00     548    73.2
 127    8:00   78.4    19    0.6   138      2.0    970     0.00     580    76.4
 127    8:10   78.9    19    0.9    26      2.5    970     0.00     611    79.5
 127    8:20   80.1    19    1.0   140      2.6    970     0.00     640    82.4
 127    8:30   81.2    17    2.0   209      3.7    970     0.00     669    85.2
 127    8:40   81.7    16    1.7   210      3.4    970     0.00     697    87.6
 127    8:50   83.4    16    1.2   211      2.8    970     0.00     723    89.8
 127    9:00   84.7    15    1.8   238      3.8    970     0.00     748    92.0
 127    9:10   85.6    15    1.0   139      2.7    969     0.00     772    94.0
 127    9:20   86.5    14    1.2   203      3.5    969     0.00     795    95.9
 127    9:30   86.3    14    2.2    42      4.3    969     0.00     818    97.6
 127    9:40   86.9    14    2.7   200      5.6    969     0.00     836    99.0
 127    9:50   87.9    14    2.1   281      4.5    969     0.00     856    100.2
 127   10:00   88.9    14    1.7   161      5.6    969     0.00     873    101.2
 127   10:10   88.7    13    2.4   237      5.6    969     0.00     890    102.1
 127   10:20   90.5    13    1.7   152      6.1    968     0.00     904    102.6
 127   10:30   89.5    13    2.3   143      5.3    968     0.00     917    103.0
 127   10:40   89.5    13    3.4   116      7.5    968     0.00     930    103.0
 127   10:50   91.1    13    2.5   114      7.2    968     0.00     938    102.9
 127   11:00   91.0    13    2.2    98      6.0    968     0.00     948    102.7
 127   11:10   92.3    12    1.9   133      6.1    968     0.00     954    102.3
 127   11:20   91.9    12    2.7   189      6.4    968     0.00     958    102.2
 127   11:30   92.8    12    2.8   253      6.2    968     0.00     963    102.1
 127   11:40   92.9    12    1.8   286      6.2    967     0.00     963    102.0
 127   11:50   93.7    12    4.0   187      9.4    967     0.00     963    102.1
 127   12:00   92.9    12    4.5   151     11.3    967     0.00     962    102.4

Return to Shoshone, California graphs page.


Western Regional Climate Center,wrcc@dri.edu